Regional Weather Roundup
Issued by NWS

Home | Current Version | Previous Version | Text Only | Print | Product List | Glossary On
Versions: 1 2 3 4 5 6 7 8 9 10 11 12 13 14 15 16 17 18 19 20 21 22 23 24 25 26 27 28 29 30 31 32 33 34 35 36 37 38 39 40 41 42 43 44 45 46 47 48 49 50
000
ASUS45 KABQ 302310
RWRNM
NEW MEXICO REGIONAL WEATHER ROUNDUP
NATIONAL WEATHER SERVICE ALBUQUERQUE NM
500 PM MDT SAT MAY 30 2015

NOTE: "FAIR" MEANS FEW OR NO CLOUDS BELOW 12,000 FEET AGL WITH NO
       SIGNIFICANT WEATHER OR OBSTRUCTIONS TO VISION.

      THIS PRODUCT IS RELEASED AS TWO VERSIONS.  ONE VERSION NEAR
      THE TOP OF THE HOUR CONTAINING PRELIMINARY DATA FROM ALBUQUERQUE
      AND OTHER STATIONS.  A FINAL VERSION WITH ADDITIONAL DATA IS
      ISSUED ABOUT 10 MINUTES AFTER THE HOUR.

NMZ501-503-504-510>518-310000-
NORTHWEST PLATEAU/NORTHCENTRAL MOUNTAINS

CITY           SKY/WX    TMP DP  RH WIND       PRES   REMARKS
FARMINGTON     SUNNY     81  29  15 W10       30.16F
LOS ALAMOS     SUNNY     69  37  31 CALM      30.29F
SANTA FE       MOSUNNY   74  35  24 W7        30.23F
TAOS           SUNNY     72  34  25 W5        30.28F
ANGEL FIRE     FAIR      65  35  32 W17G24    30.34F

$$
NMZ402-403-502-505>509-310000-
WESTCENTRAL MOUNTAINS/SOUTHWEST MOUNTAINS

CITY           SKY/WX    TMP DP  RH WIND       PRES   REMARKS
GALLUP         MOSUNNY   77  27  15 N8        30.22F
GRANTS         MOSUNNY   81  23  12 NW6       30.23F
SILVER CITY      N/A     79  41  25 SE13G20   30.18F

$$
NMZ407-409-411-412-310000-
SOUTHERN DESERTS

CITY           SKY/WX    TMP DP  RH WIND       PRES   REMARKS
LORDSBURG      FAIR      88  34  14 CALM      30.05F
DEMING         PTSUNNY   88  40  18 NE8       30.08S
LAS CRUCES     MOSUNNY   85  37  18 S5        30.10F
HOLLOMAN AFB   MOSUNNY   87  46  23 S12       30.06F
ALAMOGORDO     MOSUNNY   86  45  23 CALM      30.09F
T OR C         MOSUNNY   86  34  15 VRB7      30.10F

$$
NMZ519>523-310000-
CENTRAL VALLEYS/CENTRAL HIGHLANDS

CITY           SKY/WX    TMP DP  RH WIND       PRES   REMARKS
ALBUQUERQUE    MOSUNNY   81  37  20 VRB5      30.17F
DOUBLE EAGLE   MOSUNNY   79  43  27 VRB6      30.21F
MORIARTY ARPT  FAIR      75  37  25 S10       30.25F
CLINES CORNERS SUNNY     73  34  23 NW9       30.28F
BELEN          FAIR      81  38  21 E7        30.16F
SOCORRO        FAIR      79  38  23 S7        30.14S

$$
NMZ524>526-539-540-310000-
SOUTHCENTRAL MOUNTAINS

CITY           SKY/WX    TMP DP  RH WIND       PRES   REMARKS
RUIDOSO        PTSUNNY   63  48  59 SE15      30.33S

$$
NMZ527>531-310000-
NORTHEAST HIGHLANDS/NORTHEAST PLAINS

CITY           SKY/WX    TMP DP  RH WIND       PRES   REMARKS
LAS VEGAS      MOSUNNY   68  46  45 S23G29    30.26F
RATON          PTSUNNY   67  45  45 E6        30.23F
CLAYTON        NOT AVBL

$$
NMZ532>537-310000-
EASTCENTRAL PLAINS

CITY           SKY/WX    TMP DP  RH WIND       PRES   REMARKS
TUCUMCARI      MOSUNNY   71  51  49 SE8       30.21F
CANNON AFB     SUNNY     70  55  59 E9        30.23F
CLOVIS AIRPORT CLOUDY    70  54  56 SE7       30.22F

$$
NMZ028-029-538-310000-
SOUTHEAST PLAINS

CITY           SKY/WX    TMP DP  RH WIND       PRES   REMARKS
ROSWELL        MOSUNNY   76  54  46 SE9       30.16F
ARTESIA        MOSUNNY   77  55  47 E8G15     30.16S
CARLSBAD       MOSUNNY   78  54  43 E10       30.13F
HOBBS          MOSUNNY   73  55  53 NE10      30.19F


$$


USA.gov is the U.S. government's official web portal to all federal, state and local government web resources and services.